QPF
0.01 0.01 0.00 0.00 0.00 0.01 0.03 0.05 0.02 0.05 0.06 0.03 0.01 0.00 0.00 0.01 0.01 0.01 0.02 0.01 0.00 0.00 0.00 0.00 0.00 0.00 0.00 0.00 0.00 0.00 0.00 0.00 0.00 0.00 0.00 0.00 0.00 0.01 0.01 0.01 0.01 0.02 0.01
0.00 0.01 0.01 0.02 0.01 0.01 0.01 0.02 0.02 0.06 0.06 0.05 0.03 0.00 0.00 0.00 0.00 0.01 0.01 0.01 0.00 0.00 0.00 0.00 0.00 0.00 0.00 0.00 0.00 0.00 0.00 0.00 0.00 0.00 0.00 0.00 0.00 0.00 0.00 0.00 0.01 0.01 0.01
0.00 0.01 0.01 0.03 0.04 0.04 0.06 0.05 0.06 0.09 0.08 0.10 0.08 0.04 0.02 0.01 0.00 0.00 0.00 0.00 0.00 0.01 0.00 0.00 0.01 0.01 0.00 0.00 0.00 0.00 0.00 0.00 0.00 0.00 0.00 0.00 0.00 0.00 0.00 0.00 0.00 0.01 0.02
0.01 0.06 0.06 0.05 0.10 0.09 0.11 0.14 0.14 0.15 0.17 0.17 0.15 0.06 0.02 0.01 0.00 0.00 0.00 0.00 0.00 0.00 0.00 0.01 0.02 0.01 0.01 0.01 0.01 0.00 0.00 0.00 0.00 0.00 0.00 0.00 0.00 0.00 0.00 0.00 0.00 0.01 0.01
0.04 0.09 0.09 0.12 0.14 0.14 0.16 0.14 0.22 0.23 0.23 0.20 0.15 0.08 0.02 0.01 0.00 0.00 0.00 0.00 0.00 0.00 0.00 0.02 0.01 0.00 0.01 0.01 0.01 0.01 0.01 0.00 0.00 0.00 0.00 0.00 0.00 0.00 0.00 0.00 0.00 0.00 0.01
0.07 0.12 0.13 0.14 0.15 0.16 0.17 0.19 0.23 0.24 0.22 0.19 0.10 0.05 0.03 0.01 0.00 0.00 0.00 0.00 0.00 0.00 0.00 0.00 0.01 0.01 0.02 0.02 0.02 0.02 0.03 0.01 0.00 0.00 0.00 0.00 0.00 0.00 0.00 0.00 0.00 0.00 0.00
0.09 0.14 0.14 0.17 0.18 0.18 0.18 0.20 0.20 0.20 0.19 0.20 0.15 0.08 0.02 0.00 0.00 0.00 0.00 0.00 0.00 0.00 0.00 0.00 0.02 0.04 0.06 0.04 0.04 0.04 0.04 0.03 0.02 0.01 0.00 0.00 0.00 0.00 0.00 0.00 0.00 0.00 0.00
0.11 0.14 0.17 0.20 0.23 0.23 0.22 0.21 0.21 0.21 0.18 0.16 0.15 0.11 0.05 0.01 0.00 0.00 0.00 0.00 0.00 0.00 0.00 0.00 0.01 0.03 0.05 0.09 0.10 0.06 0.05 0.06 0.06 0.04 0.02 0.01 0.01 0.00 0.01 0.01 0.01 0.01 0.01
0.16 0.18 0.21 0.23 0.25 0.25 0.24 0.23 0.24 0.24 0.20 0.15 0.14 0.15 0.10 0.06 0.02 0.00 0.00 0.00 0.01 0.01 0.00 0.01 0.01 0.04 0.05 0.08 0.15 0.17 0.08 0.06 0.09 0.11 0.10 0.05 0.02 0.00 0.01 0.02 0.03 0.02 0.01
0.20 0.19 0.21 0.24 0.26 0.24 0.21 0.19 0.20 0.22 0.22 0.20 0.20 0.20 0.17 0.13 0.08 0.02 0.01 0.02 0.05 0.07 0.08 0.05 0.03 0.03 0.07 0.10 0.16 0.27 0.17 0.06 0.05 0.10 0.13 0.09 0.05 0.02 0.01 0.02 0.05 0.06 0.04
0.10 0.11 0.16 0.21 0.23 0.22 0.19 0.17 0.18 0.19 0.22 0.21 0.20 0.18 0.18 0.16 0.15 0.10 0.05 0.08 0.11 0.13 0.15 0.12 0.10 0.09 0.10 0.14 0.20 0.20 0.22 0.14 0.09 0.06 0.07 0.07 0.07 0.06 0.04 0.04 0.05 0.08 0.09
0.06 0.06 0.08 0.12 0.16 0.17 0.18 0.18 0.19 0.19 0.19 0.20 0.18 0.17 0.15 0.13 0.14 0.15 0.10 0.11 0.12 0.17 0.18 0.17 0.17 0.19 0.15 0.13 0.19 0.24 0.21 0.14 0.10 0.08 0.06 0.04 0.05 0.05 0.05 0.04 0.05 0.06 0.07
0.09 0.08 0.08 0.11 0.13 0.14 0.16 0.17 0.18 0.18 0.20 0.20 0.19 0.17 0.15 0.13 0.13 0.13 0.12 0.12 0.12 0.16 0.18 0.18 0.14 0.11 0.08 0.09 0.15 0.16 0.11 0.08 0.07 0.07 0.06 0.05 0.04 0.04 0.04 0.03 0.03 0.04 0.04
0.16 0.17 0.15 0.14 0.15 0.19 0.18 0.18 0.19 0.20 0.20 0.20 0.17 0.16 0.14 0.12 0.10 0.09 0.08 0.07 0.07 0.11 0.14 0.13 0.10 0.07 0.04 0.05 0.05 0.04 0.06 0.04 0.03 0.02 0.03 0.03 0.03 0.04 0.04 0.03 0.02 0.02 0.02
0.17 0.19 0.18 0.16 0.18 0.19 0.18 0.16 0.16 0.18 0.21 0.22 0.20 0.18 0.15 0.12 0.09 0.06 0.05 0.03 0.03 0.03 0.05 0.06 0.04 0.02 0.01 0.02 0.01 0.04 0.13 0.08 0.02 0.01 0.01 0.01 0.02 0.02 0.02 0.02 0.01 0.01 0.01
0.17 0.19 0.19 0.19 0.17 0.13 0.11 0.10 0.13 0.15 0.18 0.20 0.19 0.17 0.15 0.13 0.10 0.08 0.06 0.04 0.03 0.03 0.04 0.04 0.04 0.03 0.02 0.01 0.01 0.02 0.07 0.04 0.02 0.01 0.01 0.01 0.01 0.01 0.01 0.01 0.01 0.01 0.01
0.19 0.20 0.20 0.18 0.14 0.11 0.09 0.11 0.15 0.18 0.19 0.20 0.16 0.13 0.11 0.08 0.07 0.05 0.03 0.03 0.03 0.03 0.03 0.04 0.06 0.06 0.06 0.06 0.05 0.04 0.04 0.05 0.05 0.02 0.01 0.01 0.01 0.01 0.01 0.01 0.01 0.01 0.01
0.20 0.18 0.15 0.14 0.12 0.11 0.13 0.17 0.18 0.20 0.19 0.15 0.10 0.09 0.06 0.03 0.03 0.02 0.02 0.02 0.02 0.02 0.03 0.04 0.06 0.08 0.09 0.09 0.09 0.09 0.06 0.04 0.06 0.05 0.04 0.03 0.02 0.02 0.02 0.02 0.02 0.02 0.02
0.16 0.14 0.11 0.11 0.12 0.15 0.18 0.21 0.19 0.14 0.08 0.04 0.03 0.03 0.02 0.01 0.01 0.01 0.01 0.01 0.01 0.01 0.03 0.05 0.07 0.09 0.09 0.08 0.08 0.09 0.10 0.11 0.09 0.07 0.06 0.04 0.04 0.03 0.03 0.03 0.04 0.05 0.05
0.11 0.11 0.13 0.15 0.17 0.19 0.17 0.13 0.08 0.04 0.03 0.02 0.01 0.01 0.00 0.00 0.00 0.00 0.00 0.00 0.01 0.03 0.05 0.05 0.06 0.06 0.05 0.05 0.05 0.05 0.07 0.11 0.12 0.11 0.10 0.08 0.07 0.08 0.08 0.07 0.06 0.05 0.07
0.12 0.12 0.12 0.14 0.14 0.13 0.10 0.05 0.04 0.02 0.01 0.00 0.00 0.00 0.00 0.00 0.00 0.00 0.00 0.00 0.01 0.02 0.03 0.04 0.03 0.02 0.01 0.01 0.01 0.02 0.04 0.08 0.12 0.11 0.12 0.13 0.13 0.15 0.16 0.13 0.09 0.07 0.07
0.08 0.09 0.11 0.10 0.07 0.05 0.04 0.02 0.01 0.01 0.00 0.00 0.00 0.00 0.00 0.00 0.00 0.00 0.00 0.00 0.00 0.00 0.01 0.02 0.01 0.01 0.01 0.01 0.02 0.03 0.03 0.03 0.05 0.06 0.11 0.18 0.22 0.23 0.26 0.25 0.18 0.13 0.10
0.03 0.05 0.05 0.03 0.01 0.00 0.00 0.00 0.00 0.00 0.00 0.00 0.00 0.00 0.00 0.00 0.00 0.01 0.01 0.00 0.00 0.00 0.00 0.01 0.01 0.00 0.00 0.01 0.02 0.03 0.05 0.05 0.05 0.04 0.07 0.14 0.21 0.28 0.33 0.32 0.20 0.13 0.10
0.02 0.03 0.02 0.00 0.00 0.00 0.00 0.00 0.00 0.00 0.00 0.00 0.00 0.00 0.00 0.00 0.00 0.00 0.01 0.01 0.00 0.00 0.00 0.00 0.00 0.00 0.00 0.00 0.01 0.03 0.05 0.10 0.11 0.06 0.06 0.09 0.14 0.22 0.30 0.34 0.26 0.15 0.10
0.04 0.03 0.02 0.00 0.00 0.00 0.00 0.00 0.00 0.00 0.00 0.00 0.00 0.00 0.00 0.00 0.00 0.00 0.01 0.01 0.01 0.01 0.00 0.00 0.00 0.00 0.00 0.00 0.00 0.00 0.01 0.04 0.09 0.08 0.05 0.07 0.09 0.14 0.20 0.24 0.25 0.18 0.11
0.06 0.03 0.02 0.01 0.00 0.00 0.00 0.00 0.00 0.00 0.01 0.00 0.00 0.00 0.00 0.00 0.00 0.00 0.00 0.01 0.01 0.01 0.01 0.00 0.00 0.00 0.00 0.00 0.00 0.00 0.00 0.01 0.03 0.05 0.04 0.05 0.08 0.10 0.14 0.15 0.17 0.19 0.18
MSLP
1011.60 1011.76 1011.86 1011.91 1011.94 1011.97 1012.05 1012.17 1012.34 1012.52 1012.70 1012.82 1012.86 1012.82 1012.68 1012.49 1012.27 1012.07 1011.94 1011.90 1011.95 1012.10 1012.31 1012.56 1012.80 1013.01 1013.16 1013.27 1013.33 1013.37 1013.42 1013.50 1013.64 1013.85 1014.12 1014.44 1014.80 1015.16 1015.52 1015.86 1016.17 1016.45 1016.73
1010.86 1011.07 1011.22 1011.32 1011.39 1011.45 1011.53 1011.65 1011.81 1012.00 1012.19 1012.34 1012.43 1012.42 1012.32 1012.13 1011.90 1011.66 1011.46 1011.35 1011.33 1011.43 1011.61 1011.86 1012.13 1012.38 1012.58 1012.73 1012.82 1012.88 1012.92 1012.99 1013.12 1013.31 1013.57 1013.90 1014.26 1014.64 1015.02 1015.37 1015.69 1015.99 1016.27
1010.25 1010.50 1010.71 1010.86 1010.96 1011.04 1011.13 1011.24 1011.39 1011.58 1011.78 1011.95 1012.07 1012.10 1012.02 1011.83 1011.56 1011.26 1010.97 1010.75 1010.64 1010.65 1010.77 1011.00 1011.28 1011.57 1011.83 1012.04 1012.18 1012.28 1012.35 1012.44 1012.57 1012.76 1013.03 1013.36 1013.74 1014.13 1014.52 1014.88 1015.21 1015.52 1015.82
1009.81 1010.09 1010.34 1010.53 1010.67 1010.77 1010.85 1010.94 1011.07 1011.24 1011.44 1011.62 1011.76 1011.81 1011.74 1011.54 1011.23 1010.85 1010.47 1010.13 1009.90 1009.80 1009.85 1010.02 1010.30 1010.61 1010.92 1011.20 1011.41 1011.57 1011.69 1011.82 1011.97 1012.19 1012.47 1012.82 1013.21 1013.61 1014.01 1014.38 1014.72 1015.03 1015.34
1009.51 1009.82 1010.10 1010.33 1010.49 1010.60 1010.66 1010.73 1010.83 1010.97 1011.14 1011.32 1011.46 1011.52 1011.45 1011.25 1010.90 1010.46 1009.98 1009.53 1009.17 1008.96 1008.91 1009.02 1009.27 1009.59 1009.93 1010.26 1010.54 1010.76 1010.95 1011.13 1011.33 1011.57 1011.88 1012.24 1012.64 1013.06 1013.47 1013.84 1014.18 1014.50 1014.81
1009.31 1009.64 1009.96 1010.21 1010.39 1010.49 1010.54 1010.57 1010.62 1010.72 1010.85 1011.01 1011.15 1011.22 1011.16 1010.95 1010.59 1010.11 1009.56 1009.01 1008.55 1008.23 1008.08 1008.12 1008.31 1008.61 1008.97 1009.33 1009.65 1009.94 1010.18 1010.41 1010.65 1010.93 1011.26 1011.64 1012.05 1012.48 1012.88 1013.26 1013.59 1013.90 1014.21
1009.16 1009.50 1009.83 1010.10 1010.30 1010.40 1010.43 1010.42 1010.43 1010.47 1010.57 1010.70 1010.83 1010.90 1010.86 1010.67 1010.32 1009.83 1009.24 1008.65 1008.11 1007.70 1007.47 1007.42 1007.55 1007.81 1008.15 1008.51 1008.86 1009.17 1009.45 1009.72 1009.99 1010.29 1010.64 1011.03 1011.45 1011.87 1012.27 1012.63 1012.96 1013.25 1013.55
1008.98 1009.31 1009.66 1009.95 1010.16 1010.27 1010.28 1010.25 1010.22 1010.22 1010.28 1010.38 1010.50 1010.59 1010.57 1010.42 1010.11 1009.65 1009.08 1008.47 1007.90 1007.44 1007.15 1007.03 1007.09 1007.29 1007.58 1007.91 1008.25 1008.56 1008.84 1009.11 1009.40 1009.71 1010.06 1010.45 1010.86 1011.27 1011.66 1012.01 1012.31 1012.59 1012.86
1008.71 1009.04 1009.39 1009.71 1009.94 1010.06 1010.08 1010.04 1009.98 1009.96 1009.99 1010.08 1010.19 1010.29 1010.32 1010.22 1009.97 1009.58 1009.06 1008.49 1007.94 1007.47 1007.13 1006.96 1006.95 1007.09 1007.31 1007.58 1007.87 1008.14 1008.40 1008.65 1008.92 1009.21 1009.55 1009.93 1010.32 1010.72 1011.09 1011.41 1011.69 1011.94 1012.19
1008.35 1008.66 1009.01 1009.34 1009.59 1009.74 1009.79 1009.76 1009.71 1009.68 1009.69 1009.77 1009.90 1010.02 1010.09 1010.06 1009.89 1009.58 1009.15 1008.66 1008.16 1007.71 1007.37 1007.17 1007.11 1007.17 1007.32 1007.51 1007.72 1007.92 1008.12 1008.33 1008.56 1008.82 1009.14 1009.49 1009.86 1010.24 1010.58 1010.89 1011.15 1011.37 1011.57
1007.90 1008.18 1008.53 1008.86 1009.14 1009.32 1009.41 1009.41 1009.39 1009.37 1009.39 1009.48 1009.61 1009.76 1009.87 1009.90 1009.82 1009.61 1009.28 1008.88 1008.46 1008.07 1007.75 1007.54 1007.44 1007.44 1007.51 1007.62 1007.74 1007.87 1008.00 1008.14 1008.31 1008.54 1008.81 1009.14 1009.49 1009.84 1010.17 1010.46 1010.69 1010.88 1011.05
1007.43 1007.66 1007.98 1008.31 1008.61 1008.82 1008.95 1009.00 1009.01 1009.03 1009.07 1009.17 1009.32 1009.49 1009.63 1009.72 1009.71 1009.59 1009.37 1009.07 1008.74 1008.42 1008.15 1007.96 1007.84 1007.80 1007.80 1007.83 1007.87 1007.91 1007.96 1008.04 1008.15 1008.33 1008.57 1008.87 1009.20 1009.54 1009.85 1010.11 1010.32 1010.47 1010.59
1007.00 1007.17 1007.44 1007.75 1008.04 1008.28 1008.45 1008.55 1008.61 1008.66 1008.74 1008.86 1009.02 1009.20 1009.36 1009.48 1009.53 1009.48 1009.35 1009.14 1008.91 1008.67 1008.46 1008.30 1008.19 1008.13 1008.08 1008.05 1008.02 1007.98 1007.96 1007.98 1008.04 1008.18 1008.39 1008.66 1008.97 1009.29 1009.59 1009.83 1010.01 1010.11 1010.18
1006.68 1006.78 1006.98 1007.24 1007.51 1007.75 1007.95 1008.09 1008.20 1008.29 1008.40 1008.54 1008.71 1008.89 1009.06 1009.20 1009.27 1009.27 1009.21 1009.09 1008.94 1008.78 1008.64 1008.53 1008.44 1008.37 1008.30 1008.23 1008.14 1008.05 1007.98 1007.94 1007.96 1008.06 1008.24 1008.49 1008.79 1009.09 1009.37 1009.58 1009.72 1009.77 1009.78
1006.54 1006.55 1006.66 1006.86 1007.08 1007.31 1007.51 1007.69 1007.83 1007.97 1008.10 1008.26 1008.43 1008.60 1008.76 1008.89 1008.98 1009.01 1008.99 1008.93 1008.85 1008.77 1008.70 1008.64 1008.59 1008.53 1008.46 1008.36 1008.24 1008.11 1007.99 1007.91 1007.89 1007.96 1008.12 1008.35 1008.62 1008.90 1009.15 1009.33 1009.41 1009.41 1009.34
1006.61 1006.52 1006.55 1006.66 1006.83 1007.02 1007.22 1007.40 1007.57 1007.73 1007.89 1008.05 1008.22 1008.38 1008.52 1008.64 1008.72 1008.76 1008.77 1008.75 1008.73 1008.72 1008.71 1008.70 1008.69 1008.66 1008.59 1008.49 1008.35 1008.19 1008.03 1007.92 1007.87 1007.90 1008.03 1008.22 1008.47 1008.71 1008.92 1009.05 1009.08 1009.01 1008.85
1006.88 1006.72 1006.66 1006.70 1006.80 1006.94 1007.11 1007.28 1007.46 1007.64 1007.82 1007.99 1008.15 1008.30 1008.42 1008.52 1008.58 1008.62 1008.64 1008.66 1008.69 1008.72 1008.76 1008.80 1008.83 1008.82 1008.77 1008.66 1008.51 1008.33 1008.15 1008.00 1007.91 1007.91 1007.99 1008.14 1008.34 1008.53 1008.69 1008.76 1008.72 1008.57 1008.34
1007.31 1007.10 1006.98 1006.95 1006.98 1007.08 1007.21 1007.37 1007.55 1007.74 1007.92 1008.10 1008.26 1008.39 1008.50 1008.58 1008.63 1008.67 1008.70 1008.74 1008.79 1008.86 1008.95 1009.03 1009.08 1009.09 1009.04 1008.93 1008.77 1008.56 1008.35 1008.16 1008.03 1007.98 1008.01 1008.11 1008.24 1008.38 1008.46 1008.47 1008.36 1008.14 1007.83
1007.84 1007.62 1007.46 1007.38 1007.37 1007.42 1007.52 1007.66 1007.84 1008.02 1008.21 1008.40 1008.55 1008.68 1008.78 1008.85 1008.89 1008.92 1008.96 1009.01 1009.09 1009.18 1009.29 1009.39 1009.46 1009.48 1009.43 1009.31 1009.12 1008.89 1008.65 1008.42 1008.24 1008.13 1008.10 1008.13 1008.20 1008.26 1008.28 1008.22 1008.05 1007.77 1007.40
1008.39 1008.19 1008.03 1007.93 1007.89 1007.91 1007.98 1008.11 1008.28 1008.47 1008.66 1008.85 1009.01 1009.14 1009.23 1009.30 1009.33 1009.37 1009.40 1009.46 1009.54 1009.65 1009.76 1009.87 1009.94 1009.95 1009.89 1009.75 1009.54 1009.28 1009.00 1008.73 1008.51 1008.35 1008.25 1008.22 1008.22 1008.21 1008.16 1008.03 1007.81 1007.49 1007.09
1008.90 1008.75 1008.61 1008.51 1008.47 1008.47 1008.54 1008.66 1008.83 1009.02 1009.22 1009.41 1009.57 1009.70 1009.80 1009.86 1009.90 1009.92 1009.96 1010.01 1010.09 1010.19 1010.30 1010.39 1010.45 1010.44 1010.36 1010.20 1009.96 1009.68 1009.37 1009.07 1008.80 1008.59 1008.45 1008.35 1008.29 1008.22 1008.12 1007.94 1007.69 1007.34 1006.94
1009.31 1009.21 1009.12 1009.06 1009.02 1009.04 1009.11 1009.24 1009.40 1009.60 1009.80 1010.00 1010.17 1010.30 1010.40 1010.46 1010.49 1010.51 1010.54 1010.58 1010.64 1010.72 1010.80 1010.87 1010.90 1010.86 1010.75 1010.57 1010.32 1010.01 1009.68 1009.36 1009.07 1008.84 1008.65 1008.52 1008.41 1008.30 1008.15 1007.95 1007.67 1007.33 1006.94
1009.56 1009.55 1009.52 1009.50 1009.50 1009.54 1009.63 1009.77 1009.94 1010.14 1010.35 1010.55 1010.73 1010.86 1010.96 1011.01 1011.04 1011.05 1011.06 1011.08 1011.11 1011.16 1011.20 1011.23 1011.22 1011.16 1011.02 1010.82 1010.55 1010.24 1009.91 1009.59 1009.30 1009.05 1008.85 1008.70 1008.56 1008.42 1008.25 1008.04 1007.76 1007.43 1007.07
1009.66 1009.72 1009.76 1009.80 1009.85 1009.93 1010.05 1010.21 1010.40 1010.62 1010.84 1011.04 1011.21 1011.34 1011.43 1011.48 1011.49 1011.48 1011.47 1011.45 1011.45 1011.46 1011.46 1011.45 1011.40 1011.30 1011.15 1010.93 1010.67 1010.37 1010.05 1009.74 1009.47 1009.23 1009.03 1008.87 1008.73 1008.58 1008.40 1008.18 1007.91 1007.61 1007.28
1009.60 1009.74 1009.85 1009.96 1010.07 1010.20 1010.36 1010.56 1010.77 1011.00 1011.23 1011.43 1011.60 1011.73 1011.80 1011.84 1011.83 1011.80 1011.76 1011.72 1011.68 1011.65 1011.61 1011.55 1011.47 1011.34 1011.17 1010.96 1010.70 1010.42 1010.13 1009.85 1009.60 1009.39 1009.21 1009.05 1008.91 1008.75 1008.57 1008.36 1008.10 1007.81 1007.52
1009.43 1009.64 1009.83 1010.01 1010.19 1010.38 1010.59 1010.82 1011.06 1011.30 1011.53 1011.74 1011.90 1012.02 1012.09 1012.11 1012.09 1012.04 1011.98 1011.91 1011.84 1011.78 1011.70 1011.62 1011.50 1011.36 1011.18 1010.96 1010.72 1010.46 1010.21 1009.96 1009.74 1009.55 1009.39 1009.24 1009.10 1008.94 1008.76 1008.54 1008.28 1008.01 1007.74
Thickness
5796 5797 5796 5795 5792 5791 5789 5786 5786 5785 5782 5782 5782 5782 5783 5782 5782 5782 5781 5779 5776 5774 5772 5770 5767 5765 5764 5763 5763 5762 5761 5760 5758 5756 5754 5751 5748 5745 5743 5740 5737 5733 5730
5799 5797 5795 5792 5790 5789 5788 5787 5786 5784 5781 5781 5780 5781 5781 5781 5781 5782 5781 5780 5778 5776 5774 5772 5770 5767 5765 5764 5763 5762 5762 5761 5759 5757 5755 5752 5749 5747 5744 5742 5739 5735 5732
5798 5795 5791 5789 5788 5787 5786 5784 5782 5780 5778 5777 5775 5776 5777 5779 5780 5781 5781 5780 5779 5777 5775 5773 5771 5768 5766 5764 5763 5762 5761 5761 5760 5758 5755 5752 5750 5747 5745 5742 5740 5737 5733
5795 5792 5789 5787 5786 5784 5781 5778 5776 5773 5770 5769 5767 5768 5771 5774 5777 5779 5780 5780 5779 5779 5777 5774 5771 5768 5766 5764 5762 5761 5760 5759 5758 5757 5755 5752 5750 5747 5744 5742 5740 5737 5734
5793 5789 5785 5783 5781 5778 5775 5772 5770 5767 5763 5760 5759 5761 5765 5769 5773 5777 5778 5780 5779 5778 5778 5775 5773 5770 5766 5764 5762 5760 5759 5757 5756 5755 5753 5751 5749 5746 5744 5741 5739 5737 5734
5789 5785 5781 5778 5775 5772 5769 5766 5762 5760 5757 5752 5751 5752 5758 5764 5768 5771 5774 5776 5776 5776 5776 5776 5773 5771 5767 5764 5762 5760 5758 5756 5754 5753 5751 5749 5747 5745 5743 5740 5738 5735 5733
5781 5778 5774 5770 5767 5764 5761 5759 5754 5751 5748 5745 5738 5738 5748 5758 5763 5769 5773 5773 5772 5772 5773 5773 5771 5769 5766 5763 5760 5758 5756 5754 5752 5750 5748 5747 5745 5743 5741 5739 5736 5734 5732
5773 5769 5764 5761 5758 5755 5753 5750 5746 5742 5740 5736 5729 5722 5726 5740 5753 5766 5769 5768 5767 5767 5767 5767 5767 5765 5764 5762 5758 5755 5753 5751 5749 5747 5745 5744 5742 5741 5739 5737 5735 5732 5730
5764 5759 5755 5752 5750 5747 5745 5743 5740 5734 5729 5727 5724 5718 5714 5719 5732 5747 5754 5758 5759 5759 5759 5760 5760 5760 5759 5758 5757 5753 5750 5748 5747 5745 5743 5741 5739 5738 5736 5734 5732 5730 5728
5752 5750 5747 5745 5743 5740 5738 5735 5734 5728 5722 5717 5717 5717 5716 5717 5714 5723 5736 5743 5747 5748 5749 5750 5751 5752 5752 5752 5752 5751 5747 5745 5743 5741 5740 5738 5736 5734 5733 5732 5730 5728 5726
5745 5742 5739 5736 5734 5732 5730 5727 5725 5721 5716 5711 5708 5707 5709 5712 5714 5710 5715 5724 5731 5736 5740 5741 5742 5743 5744 5743 5744 5743 5742 5740 5738 5737 5735 5734 5733 5731 5730 5728 5727 5726 5724
5736 5733 5730 5728 5725 5724 5722 5719 5717 5713 5709 5705 5702 5701 5700 5702 5705 5706 5708 5713 5717 5724 5731 5733 5734 5734 5735 5734 5734 5732 5731 5731 5731 5729 5728 5728 5727 5727 5726 5725 5724 5722 5721
5724 5723 5721 5718 5717 5715 5713 5711 5708 5705 5702 5698 5696 5696 5697 5700 5702 5702 5702 5705 5709 5716 5720 5723 5726 5727 5727 5726 5726 5724 5724 5723 5723 5722 5721 5721 5720 5720 5719 5718 5718 5717 5717
5712 5712 5710 5708 5707 5706 5704 5702 5700 5698 5695 5693 5692 5692 5692 5694 5697 5698 5698 5698 5698 5703 5707 5711 5717 5719 5719 5718 5717 5717 5717 5716 5715 5714 5714 5713 5712 5711 5711 5711 5711 5710 5710
5700 5698 5697 5696 5696 5695 5694 5693 5691 5690 5689 5688 5686 5686 5686 5687 5690 5692 5694 5694 5690 5687 5691 5700 5704 5709 5710 5710 5709 5709 5709 5708 5707 5706 5705 5704 5703 5702 5702 5702 5703 5703 5704
5684 5682 5681 5681 5682 5682 5683 5683 5683 5683 5682 5681 5680 5680 5679 5679 5682 5685 5687 5688 5688 5684 5682 5690 5694 5698 5700 5700 5700 5700 5700 5700 5699 5698 5697 5695 5694 5694 5694 5694 5695 5696 5698
5666 5664 5664 5666 5668 5670 5671 5673 5674 5675 5674 5673 5673 5672 5671 5672 5673 5677 5679 5680 5681 5681 5677 5681 5686 5689 5689 5689 5690 5691 5693 5692 5692 5690 5689 5687 5686 5685 5685 5685 5686 5688 5691
5648 5648 5650 5651 5654 5657 5661 5663 5664 5665 5664 5663 5663 5663 5663 5665 5665 5667 5670 5672 5673 5675 5672 5671 5674 5676 5677 5679 5681 5682 5684 5685 5684 5683 5681 5679 5677 5676 5676 5676 5677 5680 5684
5634 5634 5636 5638 5642 5646 5650 5653 5654 5654 5654 5654 5654 5653 5654 5654 5655 5658 5661 5662 5664 5666 5666 5664 5663 5665 5666 5669 5670 5672 5674 5674 5675 5674 5671 5670 5669 5668 5667 5668 5669 5672 5676
5623 5623 5625 5628 5632 5635 5640 5642 5643 5643 5644 5644 5643 5644 5644 5645 5645 5648 5650 5651 5654 5655 5655 5654 5653 5652 5653 5656 5657 5657 5659 5660 5660 5661 5660 5660 5659 5659 5659 5659 5660 5663 5667
5616 5615 5618 5621 5623 5626 5629 5631 5632 5634 5634 5634 5635 5635 5635 5635 5635 5637 5639 5639 5641 5642 5642 5641 5639 5638 5638 5640 5641 5643 5643 5646 5646 5646 5647 5648 5649 5649 5650 5651 5651 5652 5656
5613 5613 5614 5615 5617 5618 5619 5622 5625 5625 5626 5627 5627 5628 5628 5628 5627 5627 5628 5629 5629 5628 5626 5626 5624 5623 5623 5625 5627 5629 5630 5631 5631 5634 5634 5635 5636 5637 5639 5641 5642 5643 5646
5612 5611 5611 5611 5610 5610 5612 5614 5617 5619 5619 5619 5619 5620 5622 5618 5618 5619 5620 5619 5619 5619 5618 5615 5612 5611 5611 5612 5614 5616 5618 5619 5618 5621 5623 5622 5624 5625 5627 5629 5632 5634 5635
5611 5610 5609 5608 5606 5605 5605 5607 5608 5612 5611 5611 5611 5611 5609 5607 5607 5609 5612 5611 5610 5609 5609 5608 5606 5604 5604 5604 5604 5605 5607 5609 5610 5610 5612 5610 5613 5614 5616 5618 5620 5622 5624
5609 5607 5606 5604 5601 5599 5599 5599 5600 5604 5603 5603 5602 5600 5601 5599 5599 5601 5602 5601 5600 5599 5600 5599 5599 5598 5597 5596 5595 5594 5595 5595 5594 5597 5599 5599 5601 5604 5606 5607 5609 5612 5614
5606 5605 5603 5601 5598 5596 5594 5594 5594 5598 5598 5597 5595 5592 5591 5591 5591 5592 5593 5592 5589 5589 5591 5593 5593 5592 5591 5588 5586 5583 5581 5580 5580 5582 5585 5587 5589 5592 5595 5598 5601 5602 5605